Regional Weather Roundup
Issued by NWS Bismarck, ND

Home | Current Version | Previous Version | Text Only | Print | Product List | Glossary On
Versions: 1 2 3 4 5 6 7 8 9 10 11 12 13 14 15 16 17 18 19 20 21 22 23 24 25 26 27 28 29 30 31 32 33 34 35 36 37 38 39 40 41 42 43 44 45 46 47 48 49 50
000
ASUS43 KBIS 120620
RWRBIS

NWR BROADCAST TEXT
NATIONAL WEATHER SERVICE BISMARCK ND
100 AM CDT SAT JUL 12 2014

NOTE: "FAIR" INDICATES FEW OR NO CLOUDS BELOW 12,000 FEET WITH NO
SIGNIFICANT WEATHER AND/OR OBSTRUCTIONS TO VISIBILITY.


CITY           SKY/WX    TMP DP  RH WIND       PRES   REMARKS
WILLISTON      PTCLDY    60  53  77 NE3       30.13S
MINOT          CLEAR     61  54  77 W9        30.10S
MINOT AFB      CLEAR     57  57  99 W7        30.10S
BISMARCK       CLOUDY    68  58  70 CALM      30.11S
DICKINSON      CLOUDY    64  58  80 E6        30.12S
GARRISON         N/A     62  58  86 N3        30.11S
HETTINGER ARPT CLOUDY    63  55  75 E12       30.13F
JAMESTOWN      CLOUDY    64  57  78 N6        30.07S
CARRINGTON     FAIR      59  59 100 W6        30.10S
CROSBY           N/A     57  57 100 W3        30.14S
HARVEY         FAIR      59  55  88 NW5       30.09S
HAZEN          CLOUDY    57  57 100 S3        30.12S
LINTON         FAIR      64  63  94 CALM      30.10R
MANDAN         MOCLDY    64  57  77 N6        30.12S
RUGBY          FAIR      57  57 100 CALM      30.09S
STANLEY          N/A     57  57 100 N6        30.13S
TIOGA          MOCLDY    54  54 100 CALM      30.16F
WATFORD CITY   FAIR      55  54  94 CALM      30.11S
$$

CITY           SKY/WX    TMP DP  RH WIND       PRES   REMARKS
GRAND FORKS    CLEAR     60  56  86 W7        30.03R
GRAND FORKS AF CLEAR     60  59  94 NW6       30.05R
DEVILS LAKE    CLEAR     63  55  77 CALM      30.06S
FARGO          MOCLDY    66  57  72 N6        30.03R
CANDO          FAIR      55  54  94 NW6       30.08S
CAVALIER       FAIR      59  55  88 W7        30.03F
GRAFTON        FAIR      63  57  82 NW7       30.03S
GWINNER        CLEAR     70  59  68 N8        30.06S
LANGDON        FAIR      52  50  93 W5        30.07S
ROLLA          CLOUDY    55  54  94 NW8       30.10S
WALHALLA         N/A     63  55  77 W6          N/A
$$

CITY           SKY/WX    TMP DP  RH WIND       PRES   REMARKS
ABERDEEN       CLOUDY    70  61  73 N6        30.03F
MOBRIDGE       CLOUDY    70  59  68 N12       30.04S
BUFFALO          N/A     66  58  75 E10       30.06F
RAPID CITY     CLOUDY    68  58  70 SW12      30.13F
GLASGOW        CLEAR     62  55  77 NE9       30.13S
SIDNEY         MOCLDY    66  54  63 N5        30.14S
WOLF POINT     CLEAR     61  53  75 E5        30.13S
GLENDIVE       MOCLDY    66  50  55 NE5       30.13F
MILES CITY     TSTM      67  59  75 NE9       30.12S
BAKER          CLOUDY    64  55  72 SE5       30.15F
$$

CITY           SKY/WX    TMP DP  RH WIND       PRES   REMARKS
BILLINGS       MOCLDY    68  53  58 NE12      30.14F
GREAT FALLS    CLEAR     64  52  64 NE8       30.17R
REGINA         CLEAR     55  52  88 W8        30.12R
ESTEVAN        CLEAR     55  52  88 W6        30.13
$$




USA.gov is the U.S. government's official web portal to all federal, state and local government web resources and services.